Location: Monrovia
(34.7865°N, 86.7139°W)
Time: 21:24:17
(UTC+00:00)

Cosmos 2218 Rocket - Pass Details

Date: 14 July 2020
Orbit: 955 x 1007 km, 82.9° (Epoch: 08 August)

Event Time Altitude Azimuth Distance (km) Brightness Sun altitude
Exits shadow 04:09:50 64° 84° (E) 1,094 4.0 -28.5°
Drops below altitude 10° 04:15:52 10° 13° (NNE) 2,739 6.9 -29.1°
Sets 04:18:23 0° 11° (N) 3,683 7.8 -29.3°
